User: anonymous
Location: Caltech
(34.1382°N, 118.1253°W)
Time: 16:37:46
(UTC-07:00)
Language:

deb Explorer IX - Orbit

View from above orbital plane
View from above orbital plane
View from above satellite
View from above satellite

Ground track
Ground track

The orbit data is extracted from the following two-line orbital elements,

1 00085U 61004C   14107.46330302  .00007317  00000-0  18660-2 0  9607
2 00085 038.7695 258.7820 0470244 012.0060 349.1455 14.00385354611760
Epoch (UTC): 17 April 2014 11:07:09
Eccentricity: 0.0470244
inclination: 38.7695°
perigee height: 550 km
apogee height: 1234 km
right ascension of ascending node: 258.7820°
argument of perigee: 12.0060°
revolutions per day: 14.00385354
mean anomaly at epoch: 349.1455°
orbit number at epoch: 61176

The dashed part of the orbit path shows where the satellite is in the earth's shadow,  

DLR